Location: St. Louis
(38.6270°N, 90.1994°W)
Time: 04:23:34
(UTC-06:00)

Tiros 1 - Pass Details

Date: 07 December 2021
Orbit: 630 x 663 km, 48.4° (Epoch: 20 January)

Event Time Altitude Azimuth Distance (km) Brightness Sun altitude
Rises 18:52:23 0° 276° (W) 2,918 11.7 -25.3°
Reaches altitude 10° 18:54:58 10° 289° (WNW) 2,016 10.5 -25.8°
Enters shadow 18:58:38 28° 340° (NNW) 1,210 8.6 -26.5°
